Wetbulb
65.06 65.55 67.04 68.18 67.94 68.46 69.68 69.30 71.23 71.42 72.10 72.43 73.03 73.34 73.82 74.22 74.76 73.57 73.62 74.35 73.81 74.06 74.21 74.62 76.26 75.79 76.18 76.43 76.61 76.96 76.88 78.39 77.05
64.35 65.52 66.45 67.11 68.87 68.16 69.28 68.84 71.00 71.53 72.21 72.88 73.36 73.39 74.05 74.16 74.27 73.99 73.88 74.69 74.70 74.92 75.87 75.36 75.82 75.85 75.96 76.79 76.79 77.02 77.09 78.00 76.70
63.08 64.88 65.64 66.96 68.22 68.51 68.29 68.08 71.08 71.83 72.65 72.80 73.30 73.39 73.77 73.91 74.37 74.83 74.88 75.06 74.49 74.85 75.90 75.79 75.62 75.23 75.71 76.32 76.68 76.40 77.16 76.85 76.62
61.80 63.48 65.94 66.43 67.79 69.09 69.57 69.11 69.95 70.95 71.66 72.34 72.78 73.06 73.72 74.02 74.35 74.52 74.85 74.51 74.76 75.20 75.63 75.20 75.01 75.39 75.01 75.45 75.40 76.21 77.16 76.57 76.13
65.10 66.27 66.93 67.88 67.42 68.66 69.29 69.59 69.88 70.50 71.71 72.03 72.67 73.08 73.83 73.75 74.28 74.47 74.24 74.45 74.93 75.34 75.15 75.56 75.26 75.26 75.16 75.39 75.29 76.09 75.83 74.98 75.34
64.78 65.85 66.26 66.54 67.50 68.10 68.72 69.59 70.39 69.55 70.50 70.77 72.35 72.63 71.46 73.36 73.56 73.70 73.96 74.44 74.99 75.28 74.93 74.80 75.17 75.26 75.25 75.50 75.34 75.50 75.57 75.48 75.07
64.28 65.69 65.98 66.46 67.16 68.15 69.20 69.95 70.92 70.94 70.26 72.26 73.03 72.68 71.88 72.88 73.50 74.01 74.29 74.94 75.16 74.91 75.30 74.85 74.83 75.23 75.24 75.40 75.32 75.14 75.26 75.18 75.48
63.54 64.71 65.70 66.41 67.35 68.05 68.55 69.52 70.42 70.99 70.54 72.27 72.13 72.83 72.39 72.52 73.12 74.06 74.58 74.64 74.85 75.05 75.10 74.90 75.47 75.39 75.31 75.21 75.20 73.05 73.58 73.71 73.43
63.00 63.89 64.06 64.96 66.07 66.88 67.90 68.43 68.93 68.23 68.50 71.35 71.49 69.95 70.16 69.89 71.74 71.86 71.36 73.07 73.99 74.41 74.66 74.95 75.26 74.48 74.49 73.81 70.13 61.67 63.26 67.92 72.93
62.32 63.73 65.18 65.61 65.13 65.82 67.72 68.40 67.29 66.79 69.38 70.57 70.97 69.88 70.52 70.22 69.96 69.89 71.57 72.18 71.91 72.20 73.10 72.81 72.24 71.81 71.83 70.17 68.73 60.90 62.68 66.24 72.82
62.82 64.17 64.97 65.86 65.93 66.35 68.35 68.63 68.35 67.95 66.66 67.65 67.60 68.79 68.61 69.72 68.61 67.91 71.63 70.73 69.82 69.88 70.01 69.36 69.40 69.62 70.10 68.61 64.28 59.40 61.40 67.22 70.52
63.92 64.42 64.00 65.32 66.42 66.64 67.06 68.46 69.10 68.24 67.87 66.50 66.03 66.27 66.63 67.11 67.65 67.13 68.37 68.23 68.80 68.82 67.90 67.47 67.20 67.51 67.60 67.09 64.98 57.25 59.02 65.57 67.81
62.75 63.21 64.09 64.39 64.22 65.24 66.53 66.86 66.07 66.32 65.50 65.57 65.46 67.02 67.92 68.43 67.15 67.31 66.79 67.44 66.65 65.88 64.16 62.19 61.79 61.13 59.95 58.61 61.21 56.25 56.37 63.72 66.75
62.83 62.70 62.47 62.98 63.28 63.08 65.10 66.89 66.08 64.18 65.22 64.64 64.79 65.86 66.20 67.42 67.96 67.29 66.79 66.20 64.36 62.35 60.59 59.26 58.17 57.89 58.61 58.23 57.01 58.49 54.64 57.33 67.24
62.18 61.99 62.24 62.60 63.02 63.49 64.37 65.98 65.92 65.48 63.97 65.58 65.26 63.92 63.33 63.03 63.44 63.78 63.64 62.07 60.93 60.14 59.00 57.81 56.83 56.77 56.49 57.33 56.83 54.70 54.21 54.62 57.17
60.92 61.52 61.21 63.32 62.68 62.14 62.99 65.77 66.28 64.13 63.62 63.46 62.39 61.20 59.54 59.40 60.32 62.63 62.59 61.57 60.16 59.16 59.08 58.37 57.35 58.05 58.26 58.10 58.26 57.13 53.33 53.25 54.31
61.15 61.91 62.20 63.65 63.46 62.48 61.46 62.63 63.43 63.33 63.79 62.79 61.42 58.77 57.95 58.56 58.61 59.19 62.25 62.18 61.07 60.11 59.64 59.22 59.12 59.42 60.02 60.73 60.43 58.68 58.63 57.02 56.47
62.27 62.32 62.14 62.76 62.80 62.56 62.30 63.01 62.61 63.06 62.61 61.79 58.29 57.12 56.48 56.66 57.44 55.60 53.31 50.96 52.75 58.07 54.66 55.32 60.31 59.32 59.70 59.38 58.90 55.17 50.70 53.68 58.26
62.31 61.82 63.03 62.67 62.91 63.50 63.16 62.36 62.33 62.74 62.14 61.49 58.30 55.57 55.97 56.53 56.53 55.46 55.76 56.49 54.57 46.44 45.62 44.41 44.04 46.04 56.03 56.44 49.17 45.11 43.70 42.43 43.90
60.68 63.03 62.77 62.93 63.10 63.12 63.34 62.73 61.89 62.84 61.90 60.77 61.00 59.07 58.06 54.87 55.26 56.88 56.65 56.69 56.52 55.33 51.37 45.57 43.40 42.53 44.21 46.96 47.23 43.14 42.25 43.01 43.73
MSLP
1009.51 1009.64 1009.76 1009.93 1010.37 1010.92 1011.41 1011.83 1012.54 1013.17 1013.73 1014.35 1014.99 1015.58 1016.01 1016.54 1016.85 1016.82 1016.98 1017.09 1017.13 1017.06 1017.11 1017.22 1017.37 1017.56 1017.71 1017.86 1018.02 1017.78 1017.87 1018.05 1018.07
1009.20 1009.16 1009.26 1009.24 1009.70 1010.27 1010.73 1011.47 1011.80 1012.47 1013.04 1013.60 1014.30 1014.86 1015.52 1016.05 1016.43 1016.67 1016.77 1017.07 1017.11 1016.95 1017.07 1017.03 1017.18 1017.37 1017.56 1017.52 1017.54 1017.56 1017.60 1017.72 1018.03
1009.12 1009.12 1009.09 1009.15 1009.27 1009.78 1010.29 1010.85 1011.18 1011.84 1012.51 1013.04 1013.46 1014.23 1014.92 1015.38 1015.82 1016.30 1016.52 1016.76 1016.87 1016.85 1016.86 1016.90 1017.15 1017.40 1017.36 1017.21 1017.29 1017.42 1017.65 1017.62 1017.81
1009.15 1009.09 1009.04 1009.08 1009.10 1009.37 1009.74 1010.73 1011.18 1011.60 1012.04 1012.57 1013.18 1013.65 1014.25 1014.97 1015.38 1015.77 1016.14 1016.31 1016.50 1016.59 1016.79 1017.03 1017.10 1017.05 1017.26 1017.30 1017.27 1017.33 1017.44 1017.48 1017.60
1009.33 1009.11 1009.02 1008.96 1008.96 1009.27 1009.74 1010.24 1010.88 1011.37 1011.80 1012.19 1012.59 1013.13 1013.73 1014.25 1015.02 1015.46 1015.78 1015.97 1016.13 1016.28 1016.49 1016.78 1016.95 1017.04 1017.08 1017.18 1017.12 1017.06 1017.11 1017.20 1017.18
1009.36 1009.20 1008.92 1008.97 1009.12 1009.18 1009.60 1010.10 1010.59 1011.44 1011.66 1011.91 1012.45 1013.17 1013.62 1013.84 1014.39 1014.93 1015.34 1015.53 1015.82 1016.06 1016.28 1016.43 1016.61 1016.76 1016.78 1016.80 1016.95 1017.00 1017.07 1017.18 1017.27
1009.42 1009.29 1009.22 1009.13 1009.31 1009.42 1009.69 1009.99 1010.37 1010.98 1011.58 1011.69 1012.36 1012.87 1013.29 1013.69 1013.91 1014.38 1014.78 1015.19 1015.53 1015.73 1016.01 1016.25 1016.37 1016.41 1016.49 1016.70 1016.93 1016.98 1017.10 1017.15 1017.17
1009.47 1009.42 1009.48 1009.57 1009.46 1009.65 1009.90 1010.22 1010.54 1010.95 1011.47 1012.02 1012.41 1012.75 1013.26 1013.41 1013.85 1014.30 1014.71 1015.09 1015.27 1015.54 1015.73 1015.89 1016.14 1016.31 1016.55 1016.76 1017.04 1017.40 1017.41 1017.38 1017.42
1009.66 1009.69 1009.78 1009.87 1009.86 1009.93 1010.07 1010.12 1010.82 1011.13 1011.66 1012.01 1012.44 1012.94 1013.41 1013.74 1013.83 1014.36 1014.77 1015.00 1015.08 1015.31 1015.34 1015.61 1015.85 1016.15 1016.48 1016.88 1017.42 1017.71 1017.60 1017.40 1017.17
1009.93 1009.88 1009.91 1010.01 1010.13 1010.25 1010.27 1010.42 1011.01 1011.57 1011.59 1012.07 1012.57 1013.11 1013.42 1013.78 1014.14 1014.49 1014.83 1014.99 1015.13 1015.28 1015.32 1015.63 1015.84 1016.13 1016.52 1017.08 1017.45 1017.69 1017.61 1017.40 1017.29
1010.17 1010.27 1010.42 1010.21 1010.44 1010.56 1010.62 1010.87 1011.37 1011.90 1011.99 1012.39 1012.90 1013.14 1013.42 1013.88 1014.34 1014.58 1014.71 1015.07 1015.38 1015.46 1015.68 1015.83 1016.07 1016.37 1016.71 1017.17 1017.86 1018.01 1017.88 1017.79 1017.74
1010.56 1010.99 1011.09 1011.09 1011.04 1011.11 1011.22 1011.16 1011.36 1011.85 1012.31 1012.80 1013.01 1013.26 1013.56 1013.85 1014.32 1014.52 1014.96 1015.34 1015.66 1015.88 1015.88 1016.20 1016.48 1016.98 1017.23 1017.54 1018.05 1018.21 1018.07 1018.15 1018.02
1011.29 1011.66 1011.79 1011.80 1011.78 1012.00 1011.72 1011.66 1011.62 1012.07 1012.53 1012.86 1012.84 1013.14 1013.26 1013.75 1014.02 1014.51 1014.99 1015.36 1015.86 1016.07 1016.34 1016.80 1017.20 1017.81 1017.95 1018.17 1018.35 1018.38 1018.12 1018.27 1018.36
1011.79 1012.35 1012.38 1012.51 1012.56 1012.54 1012.40 1011.88 1012.05 1012.68 1012.86 1013.20 1013.31 1013.45 1013.62 1013.56 1014.06 1014.43 1014.78 1015.21 1015.85 1016.33 1016.82 1017.34 1017.74 1018.15 1018.34 1018.64 1018.77 1018.71 1018.39 1018.32 1018.53
1012.21 1012.73 1012.94 1013.04 1013.15 1012.79 1012.82 1012.63 1013.18 1013.38 1013.48 1013.80 1013.88 1013.68 1014.01 1014.04 1014.01 1014.51 1014.72 1015.54 1016.18 1016.70 1017.23 1017.70 1018.07 1018.25 1018.51 1018.95 1019.02 1018.82 1018.66 1018.59 1018.73
1012.66 1013.19 1012.97 1013.31 1013.68 1013.25 1013.35 1013.38 1013.51 1013.68 1014.22 1014.27 1014.43 1014.66 1014.60 1014.90 1014.95 1015.32 1015.60 1015.95 1016.49 1017.19 1017.63 1018.12 1018.38 1018.70 1018.69 1018.67 1019.06 1019.46 1019.46 1019.12 1019.18
1012.90 1013.22 1013.75 1013.57 1013.74 1013.42 1013.65 1013.93 1013.74 1014.16 1014.45 1014.75 1014.86 1015.26 1015.61 1015.83 1015.96 1016.16 1016.49 1016.71 1017.25 1017.53 1017.91 1018.15 1018.23 1018.36 1018.56 1018.84 1019.33 1019.78 1019.89 1019.91 1019.89
1013.13 1013.46 1013.54 1013.80 1013.71 1013.75 1013.97 1014.31 1014.37 1014.71 1014.92 1015.03 1015.40 1015.78 1016.12 1016.52 1016.72 1016.98 1017.40 1018.02 1018.49 1018.40 1018.89 1018.66 1018.46 1018.64 1019.01 1019.22 1019.56 1020.52 1020.63 1020.41 1020.12
1013.08 1013.36 1013.62 1013.75 1013.88 1013.88 1014.35 1014.51 1014.71 1014.94 1015.19 1015.37 1015.82 1016.25 1016.52 1017.00 1017.25 1017.58 1017.87 1018.09 1018.80 1019.55 1019.69 1019.52 1019.15 1019.28 1019.45 1020.22 1020.66 1020.98 1021.13 1021.33 1021.24
1013.25 1013.54 1013.69 1013.82 1014.03 1014.28 1014.40 1014.63 1014.82 1015.35 1015.74 1015.87 1015.99 1016.14 1016.72 1017.22 1017.78 1017.81 1017.89 1017.98 1018.65 1019.11 1020.23 1020.32 1020.29 1020.37 1020.42 1020.56 1020.90 1021.20 1021.29 1021.29 1021.37
Wind_Speed
5 14 17 18 17 17 17 15 16 16 14 14 13 13 12 11 11 6 6 6 4 4 4 4 5 5 5 6 6 4 3 3 1
6 11 15 20 18 17 18 15 17 18 16 14 13 14 11 11 9 9 7 7 5 4 4 5 5 5 6 6 5 5 4 2 2
3 4 9 14 18 17 15 13 16 17 16 16 15 13 11 11 11 10 8 7 7 6 4 5 6 6 5 5 5 5 6 4 5
6 6 7 12 15 16 17 11 13 15 15 15 14 14 13 12 12 11 9 8 7 6 4 5 6 4 4 5 5 7 5 4 5
4 8 9 10 14 15 15 14 12 15 14 15 14 13 13 13 12 10 10 9 8 6 6 6 6 5 6 5 5 5 4 3 3
5 6 6 5 10 13 14 14 12 10 13 11 12 12 9 11 12 11 11 11 10 8 6 6 5 5 6 5 5 5 4 4 4
5 3 4 4 6 9 10 12 12 11 7 6 10 11 9 11 11 12 11 10 9 9 8 8 7 7 5 4 4 4 4 4 5
5 3 1 3 5 7 7 8 9 10 7 8 7 8 8 9 7 8 9 9 8 9 8 8 8 6 4 4 2 0 3 3 4
5 2 3 4 5 6 8 9 8 6 8 9 9 7 6 6 6 7 7 8 8 9 9 8 7 6 5 5 3 2 0 3 2
4 3 4 3 3 4 5 7 6 5 9 9 9 7 9 8 6 6 7 7 6 7 8 6 6 6 6 6 5 2 3 4 2
3 3 6 0 1 2 4 4 5 6 5 5 6 7 7 7 7 6 7 6 5 5 5 7 7 7 7 7 5 5 3 6 4
1 4 5 6 6 5 3 3 6 7 7 7 5 4 5 6 6 7 7 7 7 5 7 7 7 6 6 6 5 6 4 2 4
7 7 7 6 7 6 5 4 6 8 6 3 3 6 5 6 5 6 7 6 6 4 5 7 6 7 6 7 4 8 5 3 4
9 8 7 7 5 3 4 7 11 6 8 7 6 6 3 4 5 6 6 5 6 6 7 7 7 6 6 6 6 6 6 0 2
9 7 9 7 3 4 5 8 7 7 8 5 7 7 7 7 8 7 7 10 8 8 9 8 6 5 6 5 5 8 10 11 10
8 4 6 4 3 5 6 6 8 8 5 6 9 8 9 7 9 8 7 10 10 8 7 6 5 3 4 5 5 6 8 12 13
6 2 4 5 6 9 9 7 8 8 7 8 9 9 8 6 8 9 9 7 6 6 6 5 5 5 5 6 5 4 4 6 8
9 5 4 4 6 8 9 8 8 7 8 9 9 8 8 7 7 8 8 8 6 4 4 3 5 5 5 5 7 5 5 6 5
8 6 6 6 7 9 10 9 9 8 7 7 9 8 6 6 6 5 6 7 7 15 12 9 10 10 6 7 11 7 8 8 7
7 7 7 7 8 8 8 9 10 7 7 8 8 9 8 6 5 5 6 6 5 7 7 12 14 11 8 7 10 7 8 8 7
Wind_Direction
211 219 216 218 213 206 210 205 199 204 202 204 200 200 204 212 219 224 234 226 218 237 224 188 164 195 206 216 215 236 238 224 223
265 247 225 220 212 209 208 195 199 202 205 213 200 206 203 206 214 214 226 228 231 241 220 197 188 220 221 232 203 206 229 243 243
287 283 229 227 219 213 208 207 201 202 206 207 206 203 209 212 209 215 214 216 223 232 223 215 204 207 225 225 216 211 228 246 241
301 289 249 228 223 214 216 205 202 205 202 207 207 200 197 206 210 214 213 215 225 242 234 228 224 189 215 230 224 231 216 226 222
309 297 288 244 226 220 217 211 201 203 201 202 205 200 196 197 209 215 220 219 228 231 245 236 234 230 225 220 220 245 254 242 256
333 319 313 262 222 214 213 211 202 195 196 195 199 196 187 197 201 207 223 214 214 225 229 237 231 220 220 222 221 223 244 270 281
321 310 319 276 228 223 216 211 203 198 185 180 200 199 191 205 202 207 218 224 215 215 212 230 237 250 236 229 242 246 261 282 282
305 316 295 260 221 214 209 209 204 184 141 173 169 184 192 207 208 208 211 223 219 220 215 220 236 235 233 208 196 41 244 247 275
322 323 284 258 239 217 210 190 183 148 148 164 157 153 173 158 173 181 196 211 206 216 218 219 224 220 212 178 138 81 151 258 255
301 341 335 276 263 240 224 176 143 159 152 149 157 153 145 138 150 164 177 184 188 208 206 190 186 169 159 153 135 114 159 181 134
266 335 354 275 108 157 167 146 168 156 131 144 155 161 155 155 160 145 153 147 149 152 158 152 148 159 150 130 80 14 2 109 106
261 44 57 67 67 39 0 242 192 175 171 171 157 152 153 153 159 151 151 146 145 136 125 123 111 119 121 122 94 22 19 172 129
102 83 70 76 66 34 39 65 107 110 84 94 198 199 194 173 156 175 170 154 148 115 100 102 99 90 75 56 63 25 3 274 139
89 81 78 76 66 74 53 77 86 88 86 63 44 60 81 149 168 176 153 130 124 115 105 100 89 89 73 69 42 24 5 359 159
84 82 88 64 58 56 69 93 119 96 75 80 89 79 70 60 77 73 94 103 92 93 100 97 85 93 79 62 53 41 49 70 84
78 35 75 99 116 77 56 116 123 100 87 78 82 82 72 64 72 85 99 105 109 106 103 107 110 112 106 83 79 69 59 77 84
107 203 105 110 110 87 83 76 95 93 96 100 93 82 70 67 79 84 90 93 99 112 128 131 128 116 101 96 89 93 94 93 103
147 159 132 147 111 98 91 96 86 89 106 110 94 92 94 85 83 82 81 65 44 77 63 28 109 95 92 105 98 67 22 56 92
143 150 145 131 112 108 110 104 97 92 93 100 109 97 91 96 103 100 107 110 95 51 37 25 48 49 94 87 90 97 74 61 61
142 154 155 144 134 120 113 107 100 108 114 117 113 107 106 100 114 112 110 102 113 109 76 67 49 39 51 82 123 114 102 104 105